Regional Weather Roundup
Issued by NWS

Home | Current Version | Previous Version | Text Only | Print | Product List | Glossary Off
Versions: 1 2 3 4 5 6 7 8 9 10 11 12 13 14 15 16 17 18 19 20 21 22 23 24 25 26 27 28 29 30 31 32 33 34 35 36 37 38 39 40 41 42 43 44 45 46 47 48 49 50

000
ASUS44 KMEG 190900
RWRTN
TENNESSEE HOURLY STATE WEATHER ROUNDUP
NATIONAL WEATHER SERVICE MEMPHIS TN
300 AM CST MON FEB 19 2018

TNZ002-004-019-021-049-052-054-088>092-191000-
WEST TENNESSEE

CITY           SKY/WX    TMP DP  RH WIND       PRES   REMARKS
MEMPHIS INTL   MOCLDY    58  56  93 S14       30.07R
NWS MEMPHIS      N/A     58 N/A N/A MISG        N/A
JACKSON        MOCLDY    57  56  96 S10       30.09S
DYERSBURG      CLOUDY    57  55  93 SE9       30.07S
$$

TNZ008-025-027-028-033-062-065-066-191000-
NORTH MIDDLE TENNESSEE

CITY           SKY/WX    TMP DP  RH WIND       PRES   REMARKS
NASHVILLE      CLOUDY    59  55  87 S7        30.17R
CLARKSVILLE    CLOUDY    58  53  84 S12       30.11F
SMYRNA         CLOUDY    58  56  93 S3        30.18S
CROSSVILLE     CLOUDY    56  55  97 S8        30.23R FOG
$$

TNZ061-075-076-078-094-096-097-191000-
SOUTH MIDDLE TENNESSEE

CITY           SKY/WX    TMP DP  RH WIND       PRES   REMARKS
$$

TNZ017-018-042-046-047-191000-
NORTHEAST TENNESSEE

CITY           SKY/WX    TMP DP  RH WIND       PRES   REMARKS
TRI CITIES     CLOUDY    50  50 100 CALM      30.29S
$$

TNZ012-013-036-069-073-074-191000-
CENTRAL EAST TENNESSEE

CITY           SKY/WX    TMP DP  RH WIND       PRES   REMARKS
KNOXVILLE      LGT RAIN  50  49  96 E5        30.24S
OAK RIDGE      CLOUDY    53  49  86 CALM      30.26R
$$

TNZ083-085-099-191000-
SOUTHEAST TENNESSEE

CITY           SKY/WX    TMP DP  RH WIND       PRES   REMARKS
CHATTANOOGA    CLOUDY    58  56  93 CALM      30.24R
$$

SKY/WX REPORTED AS FAIR MEANS FEW OR NO CLOUDS BELOW
12 THOUSAND FEET.





USA.gov is the U.S. government's official web portal to all federal, state and local government web resources and services.